Weather History for Cold Bay, AK

Change the Weather History Date:

Thursday, November 3, 2011

  Actual Average Record
Temperature  
Mean Temperature 45 °F 36 °F  
Max Temperature 50 °F 41 °F 52 °F (2013)
Min Temperature 40 °F 32 °F 15 °F (1976)
Degree Days  
Heating Degree Days 20 29  
Month to date heating degree days 80 85  
Since 1 July heating degree days 2270 2198  
Cooling Degree Days 0    
Month to date cooling degree days 0  
Year to date cooling degree days 0  
Moisture  
Dew Point 41 °F    
Average Humidity 0    
Maximum Humidity 0    
Minimum Humidity 0    
Precipitation  
Precipitation 0.31 in 0.16 in 1.29 in (1958)
Month to date precipitation 0.62 0.47  
Year to date precipitation 30.73 32.70  
Snow  
Snow 0.00 in 0.30 in 1.80 in (2001)
Month to date snowfall T 0.7  
Since 1 July snowfall 3.1  
Since 1 September snowfall 0.1 3.1  
Snow Depth 0.00 in    
Sea Level Pressure  
Sea Level Pressure 29.34 in    
Wind  
Wind Speed 33 mph (South)    
Max Wind Speed 58 mph    
Max Gust Speed 69 mph    
Visibility 8 miles    
Events Rain    
T = Trace of Precipitation, MM = Missing Value Source: NWS Daily Summary

Daily Weather History Graph

Daily Weather History Graph

Search for Another Location

Airport:

Trip Planner

Search our weather history database for the weather conditions in past years. The results will help you decide how hot, cold, wet, or windy it might be!

Date:

Astronomy

Nov. 03, 2011 Rise Set
Actual Time 9:59 AM AKDT 7:08 PM AKDT
Civil Twilight 9:20 AM AKDT 7:47 PM AKDT
Nautical Twilight 8:36 AM AKDT 8:31 PM AKDT
Astronomical Twilight 7:54 AM AKDT 9:13 PM AKDT
Moon 4:36 PM AKDT (11/3) 2:19 AM AKDT (11/3)
Length of Visible Light 10h 27m
Length of Day
9h 09m
First Quarter, 61% of the Moon is Illuminated
Nov 3
First Quarter
Nov 10
Full
Nov 18
Last Quarter
Nov 24
New
Dec 2
First Quarter

Hourly Weather History & Observations

Time (AKDT) Temp. Windchill Dew Point Humidity Pressure Visibility Wind Dir Wind Speed Gust Speed Precip Events Conditions
12:04 AM 42.8 °F 32.1 °F 39.2 °F 87% 29.77 in 3.0 mi SE 31.1 mph 46.0 mph 0.03 in   Overcast
12:40 AM 42.8 °F 30.7 °F 41.0 °F 93% 29.74 in 3.0 mi SE 41.4 mph 55.2 mph 0.04 in   Overcast
12:53 AM 43.0 °F 31.4 °F 41.0 °F 93% 29.73 in 2.0 mi SE 38.0 mph 48.3 mph 0.09 in   Overcast
1:36 AM 44.6 °F 34.4 °F 42.8 °F 93% 29.68 in 2.5 mi SE 32.2 mph 42.6 mph 0.06 in   Overcast
1:53 AM 44.1 °F 34.4 °F 42.1 °F 93% 29.65 in 3.0 mi SE 27.6 mph 38.0 mph 0.11 in   Overcast
2:12 AM 44.6 °F 34.6 °F 42.8 °F 93% 29.63 in 4.0 mi SE 31.1 mph 38.0 mph 0.01 in Rain Light Rain
2:32 AM 44.6 °F 34.9 °F 42.8 °F 93% 29.61 in 4.0 mi SE 28.8 mph 35.7 mph 0.02 in   Overcast
2:45 AM 44.6 °F 35.3 °F 42.8 °F 93% 29.55 in 4.0 mi ESE 26.5 mph 36.8 mph 0.05 in Rain Light Rain
2:53 AM 45.0 °F 34.7 °F 43.0 °F 93% 29.54 in 4.0 mi SE 33.4 mph 40.3 mph 0.05 in Rain Light Rain
3:03 AM 44.6 °F 34.7 °F 42.8 °F 93% 29.55 in 3.0 mi SE 29.9 mph 43.7 mph 0.02 in   Overcast
3:53 AM 45.0 °F 34.9 °F 44.1 °F 97% 29.50 in 4.0 mi ESE 32.2 mph 40.3 mph 0.09 in Rain Light Rain
4:06 AM 44.6 °F 35.1 °F 44.6 °F 100% 29.47 in 5.0 mi ESE 27.6 mph 36.8 mph 0.01 in Rain Light Rain
4:29 AM 44.6 °F 34.9 °F 44.6 °F 100% 29.42 in 5.0 mi ESE 28.8 mph 36.8 mph 0.02 in Rain Light Rain
4:53 AM 46.0 °F 36.5 °F 44.1 °F 93% 29.38 in 3.0 mi ESE 31.1 mph 39.1 mph 0.03 in Rain Light Rain
5:05 AM 46.4 °F 37.5 °F 44.6 °F 93% 29.36 in 5.0 mi ESE 27.6 mph 42.6 mph 0.01 in   Overcast
5:29 AM 46.4 °F 37.9 °F 44.6 °F 93% 29.32 in 8.0 mi SE 25.3 mph 35.7 mph 0.01 in   Overcast
5:53 AM 48.0 °F - 46.0 °F 93% 29.29 in 10.0 mi SSE 28.8 mph 38.0 mph 0.01 in   Overcast
6:19 AM 48.2 °F - 46.4 °F 93% 29.25 in 10.0 mi SE 32.2 mph 39.1 mph N/A   Overcast
6:37 AM 48.2 °F - 46.4 °F 93% 29.21 in 10.0 mi SSE 29.9 mph 39.1 mph N/A   Mostly Cloudy
6:53 AM 48.0 °F - 46.0 °F 93% 29.21 in 10.0 mi SE 32.2 mph 41.4 mph N/A   Mostly Cloudy
6:55 AM 48.2 °F - 46.4 °F 93% 29.21 in 10.0 mi SE 31.1 mph 41.4 mph N/A   Mostly Cloudy
7:12 AM 46.4 °F 37.7 °F 44.6 °F 93% 29.20 in 10.0 mi SE 26.5 mph 39.1 mph N/A   Mostly Cloudy
7:53 AM 48.9 °F - 45.0 °F 86% 29.17 in 10.0 mi South 12.7 mph 21.9 mph 0.01 in   Overcast
8:53 AM 48.9 °F - 42.1 °F 77% 29.16 in 10.0 mi SSW 34.5 mph 43.7 mph N/A   Overcast
9:53 AM 48.0 °F - 41.0 °F 77% 29.15 in 10.0 mi SSW 24.2 mph 42.6 mph N/A   Mostly Cloudy
10:53 AM 48.9 °F - 39.9 °F 71% 29.12 in 10.0 mi SSW 28.8 mph 39.1 mph N/A   Scattered Clouds
11:53 AM 48.9 °F - 41.0 °F 74% 29.12 in 10.0 mi SSW 35.7 mph 44.9 mph N/A   Mostly Cloudy
12:53 PM 48.9 °F - 39.9 °F 71% 29.13 in 10.0 mi SW 34.5 mph 41.4 mph N/A   Clear
1:53 PM 48.9 °F - 41.0 °F 74% 29.14 in 10.0 mi SSW 16.1 mph - 0.00 in   Overcast
2:51 PM 46.4 °F 36.7 °F 41.0 °F 81% 29.16 in 10.0 mi WSW 33.4 mph 44.9 mph 0.01 in   Overcast
2:53 PM 46.0 °F 36.9 °F 41.0 °F 83% 29.16 in 10.0 mi WSW 28.8 mph 44.9 mph 0.01 in   Overcast
3:53 PM 45.0 °F 34.1 °F 39.0 °F 80% 29.16 in 10.0 mi WSW 38.0 mph 52.9 mph N/A   Mostly Cloudy
4:09 PM 44.6 °F 33.2 °F 37.4 °F 76% 29.16 in 10.0 mi WSW 41.4 mph 54.1 mph N/A   Mostly Cloudy
4:53 PM 45.0 °F 35.1 °F 39.0 °F 80% 29.17 in 10.0 mi WSW 31.1 mph 48.3 mph N/A   Mostly Cloudy
5:20 PM 44.6 °F 33.2 °F 39.2 °F 81% 29.17 in 10.0 mi WSW 41.4 mph 50.6 mph N/A   Overcast
5:53 PM 45.0 °F 34.3 °F 39.9 °F 82% 29.18 in 10.0 mi WSW 36.8 mph 51.8 mph N/A   Overcast
6:53 PM 44.1 °F 31.8 °F 39.0 °F 82% 29.21 in 9.0 mi WSW 47.2 mph 56.4 mph N/A   Overcast
7:02 PM 42.8 °F 29.9 °F 37.4 °F 81% 29.21 in 9.0 mi WSW 48.3 mph 56.4 mph N/A   Mostly Cloudy
7:17 PM 42.8 °F 30.5 °F 37.4 °F 81% 29.22 in 5.0 mi West 42.6 mph 57.5 mph 0.00 in Rain Light Rain
7:24 PM 42.8 °F 30.7 °F 37.4 °F 81% 29.22 in 10.0 mi West 41.4 mph 54.1 mph 0.00 in   Overcast
7:53 PM 42.1 °F 28.8 °F 37.0 °F 82% 29.24 in 8.0 mi West 49.5 mph 59.8 mph 0.00 in Rain Light Rain
8:35 PM 42.8 °F 30.5 °F 37.4 °F 81% 29.33 in 8.0 mi West 42.6 mph 54.1 mph N/A Rain Light Rain
8:53 PM 42.1 °F 31.0 °F 37.0 °F 82% 29.36 in 8.0 mi West 32.2 mph 48.3 mph 0.00 in Rain Light Rain
9:53 PM 41.0 °F 28.6 °F 36.0 °F 82% 29.35 in 10.0 mi West 38.0 mph 50.6 mph 0.00 in   Overcast
10:53 PM 41.0 °F 28.2 °F 35.1 °F 79% 29.40 in 10.0 mi West 41.4 mph 55.2 mph 0.00 in   Overcast
11:53 PM 41.0 °F 29.0 °F 34.0 °F 76% 29.50 in 10.0 mi West 35.7 mph 56.4 mph 0.00 in   Overcast